RH
96 96 87 86 85 78 82 97 92 93 89 92 90 84 78 82 79 78 80 78 76 77 81 89 87 100 88 85 78 70 71 84 74 73 61 62 58 59 68 62 57 65 62 56 57 59 58
88 87 82 88 80 78 90 93 97 94 99 93 98 85 78 79 82 84 83 81 79 78 84 91 100 89 77 88 75 79 79 74 69 58 68 53 56 54 61 60 59 61 67 69 63 60 58
90 86 78 83 81 84 86 96 93 99 99 100 93 94 81 81 86 85 85 82 80 82 87 97 99 88 81 87 84 86 74 68 61 66 61 52 48 50 57 64 60 65 79 74 66 59 64
90 75 75 77 83 82 85 91 94 98 98 97 94 89 86 88 87 87 87 85 86 85 98 98 96 76 92 87 91 84 83 66 69 58 51 49 48 56 60 57 60 67 77 96 62 61 58
79 76 80 87 80 73 78 82 88 91 92 95 87 84 86 85 81 90 88 87 91 86 94 100 88 76 97 88 93 83 58 56 54 51 50 52 50 60 65 76 85 72 96 83 83 63 63
76 73 81 79 78 79 80 80 82 83 86 90 90 91 90 84 90 88 82 64 98 92 99 85 84 90 93 84 87 65 50 50 59 60 62 68 73 84 82 74 94 86 92 83 90 67 72
74 73 75 76 79 81 82 83 84 83 84 86 90 92 93 92 88 81 60 66 87 88 87 82 85 79 80 78 70 63 54 57 56 63 70 75 86 92 82 76 70 80 87 91 73 62 72
76 75 73 75 75 81 86 86 86 86 86 88 91 92 92 91 87 68 71 92 93 92 96 78 78 83 73 68 74 62 53 65 64 84 75 79 86 70 71 73 77 73 81 85 72 67 72
77 76 73 75 82 82 90 93 92 92 91 91 93 93 92 86 72 72 85 90 89 92 95 90 84 76 75 64 71 72 57 66 72 81 83 87 64 65 68 78 80 78 84 85 87 72 68
78 78 84 83 79 88 91 96 88 89 94 92 95 95 78 56 59 84 81 95 94 96 99 100 94 86 71 65 75 61 56 63 76 78 76 85 70 74 76 85 83 90 68 74 82 95 96
81 80 83 79 90 91 92 92 89 91 95 96 96 95 73 58 70 79 88 96 98 87 93 99 92 84 72 80 77 75 55 68 77 65 68 73 75 80 87 80 69 81 70 84 87 97 98
82 83 83 84 92 88 93 90 88 90 98 97 90 75 75 72 75 82 84 95 93 89 97 100 95 93 88 76 76 77 73 68 76 82 78 83 67 75 84 77 76 72 84 83 80 88 98
83 84 86 84 93 93 95 91 88 86 84 91 96 81 82 87 92 87 78 93 92 94 95 98 94 81 80 89 80 77 85 91 95 100 98 91 86 80 79 90 80 83 97 96 94 99 96
85 87 82 87 95 95 97 96 46 52 61 68 72 71 73 78 79 83 81 89 89 94 98 88 75 77 98 86 82 79 96 100 89 96 100 98 92 96 78 90 94 91 98 98 96 97 97
90 90 89 89 94 96 100 97 66 32 40 45 54 68 72 73 80 91 95 96 99 93 77 87 82 80 87 94 93 94 99 100 89 88 96 100 91 83 85 77 84 92 100 94 100 100 99
95 86 90 90 89 97 100 99 98 52 43 45 51 65 69 69 74 82 92 96 97 79 76 80 82 79 81 86 87 92 96 86 86 75 78 92 99 79 70 85 80 91 87 100 99 97 96
96 81 92 92 95 98 100 100 97 84 56 42 57 84 53 67 64 89 98 95 84 76 78 74 67 67 80 88 75 89 83 71 76 82 82 86 90 74 71 79 66 89 99 99 97 99 97
92 85 93 93 97 97 99 98 96 96 67 52 76 86 47 61 88 94 96 90 77 80 75 74 60 50 68 78 86 81 74 72 60 80 96 83 85 97 67 51 53 58 68 75 98 88 83
95 84 87 95 96 97 99 98 80 77 84 67 92 97 48 62 94 97 80 77 77 82 82 81 71 62 49 58 69 69 67 53 58 60 56 59 75 93 64 50 55 69 63 64 62 70 88
96 83 70 96 96 97 99 97 85 77 70 70 88 90 91 90 90 85 91 90 85 70 73 72 70 55 57 67 65 68 68 55 58 57 55 57 73 75 84 72 67 74 65 63 65 89 94
96 87 49 92 95 99 99 99 90 75 71 68 91 95 88 96 92 91 84 83 84 84 71 71 66 77 61 74 67 72 67 64 53 59 57 57 72 76 62 60 58 60 69 70 88 75 93
95 89 61 67 95 100 98 97 90 83 71 73 93 91 90 87 85 84 85 82 87 84 79 76 75 72 77 81 76 77 80 62 62 60 59 67 82 73 54 62 65 57 62 67 71 69 81
95 90 71 42 88 100 98 90 87 79 74 79 93 94 83 84 80 85 88 83 80 79 66 71 78 74 71 71 74 75 74 67 59 60 66 68 76 83 66 73 60 52 57 61 62 66 66
98 90 78 29 73 99 93 88 86 73 76 77 89 90 83 83 80 81 76 74 75 76 81 75 71 69 60 71 72 69 66 58 52 55 63 66 77 86 85 64 50 47 50 49 58 58 63
99 92 80 30 81 87 88 86 79 71 74 71 88 88 86 86 80 75 73 76 76 75 75 74 65 62 73 70 65 62 66 47 47 51 56 62 78 83 82 84 46 48 48 53 52 52 53
99 92 81 35 83 86 85 86 79 78 77 75 80 84 84 84 80 70 77 76 88 90 82 67 64 66 66 73 68 65 66 62 57 63 53 64 69 75 79 70 46 41 47 40 42 58 52
100 98 84 39 82 87 83 91 88 84 78 77 76 75 75 84 81 76 81 80 82 88 93 84 80 81 69 82 78 74 79 62 69 70 66 71 76 74 81 82 65 51 45 42 48 36 58
98 99 88 39 80 89 84 79 72 68 65 63 61 64 75 87 82 74 70 80 85 89 87 77 77 75 88 79 84 82 77 73 75 61 62 64 69 76 80 78 59 50 49 48 45 60 58
94 97 91 39 65 89 81 79 81 72 68 67 62 64 66 81 78 71 65 61 62 68 83 83 82 84 89 94 89 89 78 80 71 75 57 76 66 69 70 65 48 51 46 45 61 63 59
Wind_Speed
36 34 41 36 35 41 39 43 41 37 29 23 15 8 5 6 10 10 13 14 15 14 16 16 14 15 21 4 4 7 14 17 15 14 9 4 4 4 4 1 2 2 3 6 7 8 8
32 31 34 34 37 41 41 41 61 24 22 15 9 3 3 6 8 11 13 15 17 16 14 16 2 26 11 4 3 3 15 15 14 12 6 4 4 3 3 1 1 3 4 8 7 11 8
34 32 34 32 34 37 40 40 37 46 33 16 8 4 5 8 10 12 13 16 18 20 18 14 17 13 7 6 6 7 13 10 14 9 4 3 3 4 3 1 1 4 7 7 10 7 6
34 32 32 32 30 34 34 36 35 31 29 23 14 10 10 10 11 13 16 18 22 19 14 11 23 12 4 8 11 13 6 9 9 6 10 7 5 4 4 2 4 3 1 4 5 2 5
32 31 30 31 32 33 33 34 31 27 25 19 14 12 12 13 13 14 17 18 16 5 8 22 15 7 5 8 7 15 12 9 11 7 6 6 2 2 2 3 3 1 3 6 8 4 3
31 31 29 31 31 32 33 31 28 26 24 20 16 13 11 11 13 16 15 6 12 19 22 20 10 6 4 6 9 9 8 15 4 5 4 3 2 1 3 3 4 4 4 6 8 5 5
29 29 28 29 30 32 31 29 27 24 22 19 17 15 13 13 14 13 16 4 5 4 7 2 7 5 9 14 19 10 10 7 3 2 2 2 1 6 8 7 4 3 6 12 16 15 14
29 27 27 28 30 32 31 29 27 23 20 17 14 13 14 15 12 10 16 5 3 2 7 8 7 7 9 16 8 6 14 4 3 3 2 2 7 11 7 5 8 13 14 16 16 15 6
27 26 26 28 30 31 33 32 28 26 21 16 13 15 15 12 8 17 19 7 6 1 4 6 5 9 6 3 4 8 9 3 3 6 7 5 4 4 8 8 11 13 14 14 13 14 12
26 24 26 28 29 30 34 32 29 26 21 13 13 14 14 6 6 4 7 8 5 2 3 4 4 3 1 3 3 4 10 3 4 7 5 6 7 8 8 9 11 15 11 17 16 10 5
25 23 24 26 28 30 32 32 29 28 24 15 8 11 11 12 4 4 7 6 4 2 4 1 2 4 2 2 9 3 9 3 4 3 3 6 3 6 11 6 12 8 5 8 11 12 12
22 21 23 25 27 29 30 30 30 30 27 15 7 7 8 5 8 6 11 4 2 4 5 2 3 6 5 2 2 6 4 1 2 3 3 8 3 4 4 3 6 6 7 14 13 7 5
22 21 23 24 25 27 27 27 26 27 29 21 11 10 12 9 4 11 7 1 3 5 1 1 6 4 4 3 4 5 6 5 3 3 3 2 4 2 3 6 5 6 4 4 3 2 3
22 21 22 23 24 25 24 21 22 23 23 20 13 9 10 10 9 10 5 3 8 6 5 1 4 5 1 5 2 5 4 3 9 4 3 2 5 6 6 5 2 4 2 2 4 3 3
21 20 21 22 23 24 23 21 18 21 22 19 9 6 5 13 13 10 3 6 3 3 4 4 1 2 1 2 3 4 4 3 3 8 4 2 5 1 8 5 3 2 3 2 4 3 3
21 19 21 22 23 25 26 25 20 16 20 15 5 7 8 27 14 4 4 7 4 4 2 1 1 3 3 2 1 1 2 5 3 6 3 1 5 4 2 4 7 5 3 2 2 3 3
21 19 20 22 23 24 25 26 23 21 17 13 7 4 14 30 5 6 4 4 2 3 3 4 0 2 2 3 1 2 2 2 3 5 6 2 2 5 2 4 3 2 2 2 3 2 2
20 19 19 20 21 22 22 23 23 21 15 8 5 3 20 23 4 2 3 5 5 3 2 1 2 2 3 4 2 2 2 2 1 7 5 5 2 4 6 2 2 2 4 3 1 1 1
19 20 18 18 20 22 23 22 22 19 16 4 3 2 8 10 4 4 5 4 2 8 6 6 5 4 3 2 2 3 3 2 1 3 2 3 2 4 7 5 4 3 6 5 2 1 2
18 20 19 19 19 21 22 23 22 19 13 4 3 3 4 4 1 2 4 5 6 5 4 4 3 2 4 6 6 3 6 2 5 3 2 2 2 1 3 4 3 6 13 7 1 2 1
17 19 20 18 20 21 23 22 21 18 12 3 3 1 1 3 4 4 3 3 5 7 5 7 6 6 1 4 3 5 4 6 3 7 2 2 1 1 3 3 2 2 6 12 7 2 4
17 19 21 19 20 22 23 22 19 17 9 3 3 4 3 1 3 5 6 5 6 6 6 6 4 6 7 4 1 2 1 3 1 6 3 3 1 1 3 5 6 4 9 8 6 6 5
16 17 20 19 19 23 24 17 11 10 7 2 1 2 4 2 2 3 3 4 5 7 1 2 4 3 5 2 5 7 5 4 4 2 2 2 2 2 4 4 6 3 4 4 2 2 3
16 17 19 19 19 22 22 13 6 6 8 3 2 1 3 2 2 0 2 2 4 5 2 5 4 4 4 7 3 3 4 5 2 1 1 1 3 3 3 5 3 4 2 1 2 3 2
15 15 17 16 17 19 18 12 7 7 7 5 3 3 1 3 4 2 4 3 5 5 3 2 3 3 5 5 4 4 4 4 2 2 3 2 3 2 2 2 5 2 4 4 4 4 4
15 14 14 12 12 13 12 9 7 6 5 6 7 5 2 3 4 7 3 2 3 4 6 4 4 6 4 3 4 4 3 2 4 8 2 3 4 3 1 1 4 3 2 2 3 4 5
14 14 13 10 8 9 7 5 6 5 5 5 3 6 3 1 3 3 3 5 3 0 2 4 6 7 4 3 2 0 3 2 4 4 4 3 2 2 2 3 6 4 1 0 3 4 4
15 15 12 9 4 4 3 3 5 5 5 5 4 4 2 1 4 4 4 5 3 2 2 4 2 2 3 4 1 2 1 2 3 3 3 1 1 2 1 1 5 4 3 4 5 1 3
17 16 14 8 4 2 3 2 5 5 5 4 2 3 2 3 3 4 9 8 5 5 4 1 2 2 3 2 1 1 2 2 1 4 2 3 5 2 6 5 4 5 5 3 4 3 3
Wind_Direction
347 1 346 354 358 350 345 347 319 295 269 246 241 245 282 317 318 318 312 315 314 308 309 304 292 163 129 83 305 24 140 161 159 166 158 123 104 117 146 188 353 216 280 293 299 291 277
2 359 354 356 358 351 351 352 6 294 262 244 224 227 334 333 332 326 320 311 311 307 299 295 296 146 114 117 35 22 157 159 159 151 130 123 161 145 127 105 148 342 310 288 279 276 272
360 359 358 358 0 8 9 9 15 24 29 68 79 36 14 350 345 333 319 315 310 306 296 278 180 110 83 134 170 182 152 139 152 133 102 59 104 94 105 55 11 329 322 306 258 261 243
2 3 7 10 6 1 7 13 17 23 34 38 43 27 6 1 345 334 323 319 310 304 292 208 162 109 109 150 159 152 156 113 132 116 101 67 114 107 124 149 360 327 358 340 287 313 253
10 11 10 9 9 5 6 6 7 12 17 20 22 17 6 347 342 331 324 324 330 12 120 147 137 99 130 133 126 156 171 127 116 106 89 96 53 111 71 119 355 45 259 244 297 228 252
8 8 6 6 9 5 7 4 5 6 6 10 8 5 357 349 347 331 333 353 42 88 97 109 101 106 154 153 138 154 145 144 107 98 52 62 63 72 163 168 225 213 248 266 251 299 189
7 6 8 7 8 3 5 1 359 359 0 3 0 355 350 355 354 351 354 41 26 24 29 58 135 61 133 131 135 186 148 121 89 60 186 269 192 224 219 211 223 322 279 276 276 276 285
8 9 10 9 7 6 2 356 353 355 358 355 355 354 353 1 12 11 49 70 99 248 60 58 64 80 127 148 143 144 150 127 131 206 132 86 251 247 200 213 240 255 269 269 278 258 243
7 7 9 6 6 6 2 359 353 348 347 352 352 4 7 11 89 61 59 75 63 160 69 45 46 101 131 136 97 161 150 135 186 204 203 186 233 51 195 229 234 245 250 266 263 295 272
9 5 6 4 6 8 7 6 6 360 353 347 354 7 7 51 52 40 48 13 35 256 95 11 69 58 168 97 85 131 170 189 217 223 198 240 239 233 245 233 206 266 237 248 267 285 287
7 7 5 3 5 10 16 17 15 5 3 360 13 20 20 46 72 40 2 359 112 7 74 62 36 121 248 198 137 183 209 290 259 217 192 256 266 230 239 245 193 243 268 270 268 269 298
6 5 3 4 6 11 20 30 27 25 23 26 40 27 32 58 71 17 2 104 126 47 72 124 146 148 171 31 106 138 180 202 285 317 255 254 274 286 231 293 239 302 304 278 265 250 251
2 4 1 4 6 11 19 33 36 31 30 35 33 21 43 46 351 353 2 143 70 58 305 37 98 157 121 138 153 171 166 186 229 223 236 262 233 259 214 276 216 206 263 306 332 217 254
1 2 3 1 4 9 13 25 31 20 14 16 31 47 43 31 9 358 6 63 59 41 68 126 108 111 116 181 173 174 156 228 236 221 287 294 321 195 179 227 297 219 221 275 297 306 312
0 359 359 359 1 1 4 10 29 29 15 11 357 334 354 354 332 321 103 54 77 21 27 74 96 183 132 185 214 195 203 234 227 187 212 307 274 226 205 212 196 64 244 232 270 223 239
354 359 357 358 357 359 359 0 3 15 10 7 11 333 309 350 347 88 54 76 71 43 18 157 168 187 177 119 121 252 221 188 228 167 174 9 296 207 280 183 247 237 354 293 254 303 321
353 356 357 355 356 358 356 357 358 1 2 12 53 30 351 349 13 45 48 45 343 281 226 203 309 137 111 154 147 227 236 219 242 147 169 259 273 300 289 200 215 169 265 271 277 248 320
352 353 355 353 352 353 352 357 355 354 358 352 83 30 340 356 47 33 33 337 325 289 318 319 227 75 166 148 179 261 288 233 99 143 182 228 269 279 250 348 25 254 270 183 243 208 349
347 352 348 349 348 349 348 349 353 355 359 7 70 219 348 9 64 349 319 335 308 357 0 17 9 24 14 76 69 45 334 283 236 178 229 175 324 319 346 4 6 9 314 241 222 42 39
341 347 345 343 346 345 344 347 350 353 358 18 77 37 332 37 61 41 353 355 348 340 315 345 330 0 51 39 28 27 347 317 347 1 140 123 94 166 172 247 299 328 346 6 114 80 116
337 342 345 342 341 342 342 344 347 348 352 41 52 166 165 357 350 6 18 348 355 5 344 15 20 19 295 50 28 21 334 334 348 6 80 97 88 45 260 296 298 285 342 22 53 316 48
332 336 343 346 342 339 343 342 340 338 336 55 121 132 60 25 328 9 354 1 12 332 11 343 41 339 23 81 118 241 13 34 328 326 43 347 223 54 306 345 357 357 7 18 32 44 64
326 330 341 346 345 338 338 332 328 341 335 63 53 108 114 316 38 51 323 323 338 345 23 34 307 329 8 349 238 239 218 256 255 308 324 69 106 47 276 348 337 346 331 353 335 37 155
317 326 336 343 350 351 344 343 1 28 28 30 72 322 79 107 86 172 337 326 310 318 263 311 348 353 318 311 248 257 247 259 276 42 183 118 112 127 246 355 20 245 265 235 137 292 308
307 320 330 342 355 2 1 15 46 58 50 77 38 359 10 119 145 16 353 320 318 317 339 288 283 248 315 346 3 351 335 349 332 305 356 79 114 45 101 180 281 237 202 188 186 259 196
297 305 319 335 360 4 13 21 58 66 60 44 45 33 35 114 234 146 135 340 339 328 337 300 317 316 32 57 38 351 309 301 316 333 67 60 65 113 105 76 223 248 240 148 154 271 195
281 293 307 319 1 10 43 43 65 61 33 19 24 14 43 70 262 162 167 159 157 64 271 302 332 348 14 27 37 318 287 274 314 313 335 338 1 143 188 244 289 254 215 285 90 244 179
271 280 289 299 341 6 85 59 8 28 30 28 25 22 64 156 270 229 181 150 138 152 191 288 3 344 12 44 37 299 253 281 329 256 300 252 345 256 152 276 298 176 65 165 231 283 176
262 269 275 276 262 302 269 312 347 5 20 29 67 353 324 158 242 264 265 236 201 164 147 284 242 240 195 96 183 202 297 325 207 291 318 281 189 225 186 229 251 223 225 237 191 190 217